Content
SEND FEEDBACK

Daily
Averages
Monthly
Summary
United States of America

FILLMORE, NEW YORK


Home > North America > United States > New York
Elevation: 1342 feet     Latitude: 42 30N     Longitude: 078 05W

WEATHER
 
SELECT A DAY
Number of Records: 160,751;   Date Range: 3/1/00 - 12/18/14
 
SHARE

PRINT THIS DATA

[ ← Previous Day ]
WEATHER ALMANAC - JANUARY 23, 2013
[ Next Day → ]
[ °C ]   °F
Weather ElementAverageHighLow
Temperature7.7 °F14 °F (2:54 pm)1 °F (1:54 am)
Dewpoint-1.1 °F3 °F (5:54 pm)-6 °F (1:54 am)
Humidity68 %83 % (7:54 am)47 % (2:54 pm)
Barometer30.21 in30.28 in (9:54 am)30.16 in (11:54 pm)
Wind Speed3.4 mph10.4 mph (11:54 pm)
Weather ElementAverage
Visibility10 mi
Wind DirectionESE (122.4 °)

Weather ElementTotal
Precipitation---
Heating Degree Days57.5 (Base 65)
Averaged from 25 records on January 23, 2013
WEATHER CONDITIONS BREAKOUT
WIND DIRECTION BREAKOUT
WEATHER BY HOUR - JANUARY 23, 2013
[ °C ]   °F
Local TimeTemperatureDewpointHumidityBarometerVisibilityWind DirectionWind SpeedGust SpeedPrecipitationEventsConditions
1:54 AM1.0 °F-6.0 °F72 %30.22 in10.0 miCalmOvercast
2:54 AM1.0 °F-6.0 °F72 %30.23 in10.0 miCalmMostly Cloudy
3:54 AM3.9 °F-4.0 °F70 %30.23 in10.0 miCalmOvercast
4:54 AM3.9 °F-2.9 °F73 %30.23 in10.0 miSouth (190°)3.5 mphOvercast
5:54 AM3.9 °F-2.9 °F73 %30.24 in10.0 miSouth (180°)5.8 mphOvercast
6:54 AM3.0 °F-2.0 °F80 %30.25 in10.0 miCalmOvercast
7:54 AM1.9 °F-2.0 °F83 %30.26 in9.0 miCalmOvercast
8:54 AM3.9 °F-2.9 °F73 %30.27 in10.0 miSSE (150°)3.5 mphOvercast
9:54 AM8.1 °F-2.0 °F64 %30.28 in10.0 miCalmOvercast
10:21 AM8.6 °F-0.4 °F67 %30.21 in10.0 miNNE (20°)3.5 mphOvercast
10:54 AM10.0 °F0.0 °F64 %30.27 in10.0 miNorth (360°)6.9 mphOvercast
11:13 AM10.4 °F-0.4 °F62 %30.19 in10.0 miNorth (360°)5.8 mphOvercast
11:54 AM10.9 °F-0.9 °F59 %30.25 in10.0 miVariable3.5 mphMostly Cloudy
12:54 PM12.9 °F0.0 °F56 %30.22 in10.0 miNorth (10°)4.6 mphOvercast
1:54 PM12.9 °F-2.9 °F49 %30.21 in10.0 miWNW (300°)5.8 mphOvercast
2:54 PM14.0 °F-2.9 °F47 %30.20 in10.0 miNorth (360°)4.6 mphOvercast
3:54 PM14.0 °F-2.0 °F49 %30.19 in10.0 miCalmOvercast
4:54 PM12.9 °F1.9 °F62 %30.19 in10.0 miSSE (150°)3.5 mphOvercast
5:54 PM10.9 °F3.0 °F70 %30.18 in10.0 miSSE (150°)4.6 mphOvercast
6:54 PM10.0 °F3.0 °F73 %30.18 in10.0 miCalmMostly Cloudy
7:54 PM9.0 °F3.0 °F77 %30.17 in10.0 miSouth (180°)3.5 mphMostly Cloudy
8:54 PM8.1 °F1.9 °F76 %30.17 in10.0 miSSE (160°)3.5 mphOvercast
9:54 PM8.1 °F1.9 °F76 %30.17 in10.0 miSouth (180°)3.5 mphOvercast
10:54 PM6.1 °F0.0 °F76 %30.17 in10.0 miSSE (150°)8.1 mphClear
11:54 PM3.9 °F-2.0 °F76 %30.16 in10.0 miSSE (160°)10.4 mphClear
Hourly data recorded from KDSV, located miles away from Fillmore, New York







STORIES FROM OUR PARTNERS